PDA006 UKWW-LDSP

Flight info

Callsign PDA006
Flight time 1h 47m
Altitude 34000
Route TAKET M991 IVF M986 TAKON DCT GEMTO/N0447F340 DCT PARAK DCT SOMUN DCT SOLGU DCT KENEM
Aircraft A321/M-SDE3FGHIJ4RWY/LB1

Departure

Time 2026-05-05 11:00
Airport Vinnytsia/Gavyryshivka International Airport (UKWW)

Arrival

Time 2026-05-05 12:47
Airport Split Saint Jerome Airport (LDSP)
Time Latitude Longitude Altitude Speed Heading
2026-05-05 10:35 49.24290 28.60614 976 ft 0 kts 317°
2026-05-05 10:53 49.24291 28.60614 978 ft 0 kts 317°
2026-05-05 10:53 49.24299 28.60605 981 ft 2 kts 328°
2026-05-05 10:53 49.24318 28.60610 977 ft 3 kts 27°
2026-05-05 10:54 49.24319 28.60644 978 ft 4 kts 112°
2026-05-05 10:54 49.24299 28.60685 981 ft 6 kts 120°
2026-05-05 10:54 49.24312 28.60744 980 ft 7 kts 48°
2026-05-05 10:54 49.24350 28.60807 980 ft 9 kts 48°
2026-05-05 10:55 49.24396 28.60886 974 ft 10 kts 48°
2026-05-05 10:55 49.24446 28.60972 976 ft 11 kts 48°
2026-05-05 10:55 49.24515 28.61017 966 ft 12 kts 345°
2026-05-05 10:55 49.24584 28.60935 968 ft 13 kts 319°
2026-05-05 10:56 49.24653 28.60839 968 ft 13 kts 317°
2026-05-05 10:56 49.24720 28.60746 969 ft 13 kts 317°
2026-05-05 10:56 49.24788 28.60652 979 ft 13 kts 317°
2026-05-05 10:56 49.24854 28.60559 978 ft 13 kts 318°
2026-05-05 10:57 49.24930 28.60455 976 ft 16 kts 318°
2026-05-05 10:57 49.25015 28.60339 973 ft 16 kts 318°
2026-05-05 10:57 49.25045 28.60249 978 ft 6 kts 305°
2026-05-05 10:57 49.25068 28.60270 981 ft 4 kts 95°
2026-05-05 10:58 49.25052 28.60299 977 ft 3 kts 141°
2026-05-05 10:58 49.25040 28.60314 981 ft 2 kts 141°
2026-05-05 10:58 49.25034 28.60321 977 ft 1 kts 142°
2026-05-05 10:58 49.25026 28.60331 983 ft 1 kts 142°
2026-05-05 10:59 49.25014 28.60347 977 ft 8 kts 140°
2026-05-05 10:59 49.24828 28.60593 976 ft 71 kts 139°
2026-05-05 10:59 49.24292 28.61329 976 ft 134 kts 138°
2026-05-05 10:59 49.23460 28.62439 1068 ft 175 kts 142°
2026-05-05 11:00 49.22512 28.63647 1724 ft 181 kts 144°
2026-05-05 11:00 49.21546 28.64863 2455 ft 179 kts 142°
2026-05-05 11:00 49.20546 28.66115 2753 ft 196 kts 143°
2026-05-05 11:00 49.19434 28.67515 2976 ft 217 kts 141°
2026-05-05 11:01 49.18557 28.69513 3068 ft 243 kts 104°
2026-05-05 11:01 49.18688 28.72157 3264 ft 265 kts 65°
2026-05-05 11:01 49.19892 28.74302 3714 ft 273 kts 29°
2026-05-05 11:01 49.21708 28.75027 4299 ft 274 kts 354°
2026-05-05 11:02 49.23471 28.74079 4942 ft 271 kts 320°
2026-05-05 11:02 49.24577 28.71801 5574 ft 271 kts 289°
2026-05-05 11:02 49.25108 28.69037 6281 ft 271 kts 284°
2026-05-05 11:02 49.25609 28.66241 6952 ft 274 kts 284°
2026-05-05 11:03 49.26111 28.63418 7655 ft 274 kts 285°
2026-05-05 11:03 49.26613 28.60591 8336 ft 277 kts 285°
2026-05-05 11:03 49.26952 28.57674 8946 ft 282 kts 274°
2026-05-05 11:03 49.26743 28.54677 9564 ft 288 kts 253°
2026-05-05 11:04 49.25838 28.51903 10135 ft 295 kts 241°
2026-05-05 11:04 49.24735 28.49141 10351 ft 315 kts 239°
2026-05-05 11:04 49.23520 28.46228 10473 ft 335 kts 238°
2026-05-05 11:04 49.22211 28.43160 10669 ft 351 kts 238°
2026-05-05 11:05 49.20855 28.40003 11137 ft 358 kts 238°
2026-05-05 11:05 49.19483 28.36807 11702 ft 362 kts 238°
2026-05-05 11:05 49.18101 28.33572 12265 ft 365 kts 238°
2026-05-05 11:05 49.16712 28.30308 12828 ft 369 kts 238°
2026-05-05 11:06 49.15780 28.28111 13202 ft 372 kts 238°
2026-05-05 11:06 49.14369 28.24776 13762 ft 375 kts 238°
2026-05-05 11:06 49.12948 28.21415 14289 ft 379 kts 238°
2026-05-05 11:06 49.11510 28.18026 14807 ft 382 kts 238°
2026-05-05 11:07 49.10056 28.14610 15331 ft 385 kts 238°
2026-05-05 11:07 49.08590 28.11169 15853 ft 388 kts 238°
2026-05-05 11:07 49.07111 28.07704 16379 ft 391 kts 238°
2026-05-05 11:07 49.05617 28.04217 16907 ft 394 kts 238°
2026-05-05 11:08 49.04111 28.00707 17434 ft 397 kts 238°
2026-05-05 11:08 49.02588 27.97170 17934 ft 401 kts 238°
2026-05-05 11:08 49.01050 27.93601 18401 ft 405 kts 238°
2026-05-05 11:08 48.99503 27.89996 18846 ft 407 kts 238°
2026-05-05 11:09 48.98170 27.86193 19294 ft 408 kts 249°
2026-05-05 11:09 48.97304 27.82086 19820 ft 408 kts 259°
2026-05-05 11:09 48.96919 27.77818 20286 ft 408 kts 269°
2026-05-05 11:09 48.96853 27.73493 20751 ft 410 kts 270°
2026-05-05 11:10 48.96793 27.69143 21196 ft 412 kts 270°
2026-05-05 11:10 48.96731 27.64765 21624 ft 415 kts 270°
2026-05-05 11:10 48.96667 27.60359 22040 ft 418 kts 270°
2026-05-05 11:10 48.96598 27.55911 22450 ft 421 kts 270°
2026-05-05 11:11 48.96524 27.51449 22855 ft 423 kts 269°
2026-05-05 11:11 48.96450 27.46961 23260 ft 425 kts 269°
2026-05-05 11:11 48.96378 27.42448 23636 ft 428 kts 269°
2026-05-05 11:11 48.96304 27.37907 23967 ft 430 kts 269°
2026-05-05 11:12 48.96225 27.33343 24301 ft 432 kts 269°
2026-05-05 11:12 48.96140 27.28762 24640 ft 434 kts 269°
2026-05-05 11:12 48.96051 27.24167 24983 ft 436 kts 269°
2026-05-05 11:12 48.95963 27.19551 25317 ft 437 kts 269°
2026-05-05 11:13 48.95878 27.14914 25647 ft 439 kts 269°
2026-05-05 11:13 48.95790 27.10254 25971 ft 441 kts 269°
2026-05-05 11:13 48.95699 27.05581 26295 ft 443 kts 269°
2026-05-05 11:13 48.95607 27.00952 26605 ft 445 kts 269°
2026-05-05 11:14 48.95509 26.96241 26917 ft 447 kts 269°
2026-05-05 11:14 48.95406 26.91509 27215 ft 449 kts 269°
2026-05-05 11:14 48.95303 26.86754 27495 ft 450 kts 269°
2026-05-05 11:14 48.95196 26.81919 27802 ft 452 kts 269°
2026-05-05 11:15 48.95089 26.77193 28088 ft 454 kts 269°
2026-05-05 11:15 48.94978 26.72382 28379 ft 456 kts 269°
2026-05-05 11:15 48.94866 26.67554 28653 ft 458 kts 269°
2026-05-05 11:15 48.94743 26.62704 28936 ft 459 kts 269°
2026-05-05 11:16 48.94607 26.57838 29223 ft 461 kts 269°
2026-05-05 11:16 48.94462 26.52954 29501 ft 463 kts 269°
2026-05-05 11:16 48.94309 26.48042 29797 ft 465 kts 269°
2026-05-05 11:16 48.94157 26.43141 30170 ft 464 kts 269°
2026-05-05 11:17 48.94007 26.38247 30502 ft 463 kts 269°
2026-05-05 11:17 48.93857 26.33366 30814 ft 462 kts 269°
2026-05-05 11:17 48.93704 26.28501 31191 ft 459 kts 269°
2026-05-05 11:17 48.93551 26.23657 31538 ft 458 kts 269°
2026-05-05 11:18 48.93394 26.18819 31870 ft 457 kts 269°
2026-05-05 11:18 48.93235 26.13990 32185 ft 456 kts 269°
2026-05-05 11:18 48.93076 26.09183 32502 ft 455 kts 269°
2026-05-05 11:18 48.92917 26.04378 32797 ft 455 kts 269°
2026-05-05 11:19 48.92756 25.99571 33089 ft 454 kts 269°
2026-05-05 11:19 48.92592 25.94775 33375 ft 454 kts 269°
2026-05-05 11:19 48.92425 25.89990 33660 ft 453 kts 268°
2026-05-05 11:19 48.92257 25.85206 33912 ft 453 kts 268°
2026-05-05 11:20 48.92086 25.80434 33975 ft 450 kts 268°
2026-05-05 11:20 48.91743 25.70960 33975 ft 448 kts 268°
2026-05-05 11:21 48.91399 25.61581 33972 ft 447 kts 268°
2026-05-05 11:21 48.91075 25.52141 33974 ft 447 kts 269°
2026-05-05 11:22 48.90816 25.42683 33975 ft 447 kts 269°
2026-05-05 11:22 48.90557 25.33245 33969 ft 448 kts 269°
2026-05-05 11:23 48.90270 25.23788 33974 ft 447 kts 269°
2026-05-05 11:23 48.89968 25.14357 33979 ft 447 kts 269°
2026-05-05 11:24 48.89664 25.04921 33981 ft 447 kts 269°
2026-05-05 11:24 48.89344 24.95470 33983 ft 447 kts 269°
2026-05-05 11:25 48.89015 24.86036 33981 ft 447 kts 269°
2026-05-05 11:25 48.88683 24.76603 33984 ft 447 kts 268°
2026-05-05 11:26 48.87955 24.67243 33986 ft 448 kts 256°
2026-05-05 11:26 48.86025 24.58235 33981 ft 449 kts 253°
2026-05-05 11:27 48.84047 24.49244 33991 ft 449 kts 253°
2026-05-05 11:27 48.82070 24.40269 33990 ft 449 kts 253°
2026-05-05 11:28 48.80074 24.31284 34005 ft 449 kts 253°
2026-05-05 11:28 48.78071 24.22311 34003 ft 449 kts 253°
2026-05-05 11:29 48.76069 24.13364 34016 ft 448 kts 253°
2026-05-05 11:29 48.74057 24.04423 34015 ft 448 kts 253°
2026-05-05 11:30 48.72034 23.95488 34019 ft 448 kts 253°
2026-05-05 11:30 48.70013 23.86572 34021 ft 448 kts 253°
2026-05-05 11:31 48.67981 23.77647 34025 ft 448 kts 253°
2026-05-05 11:31 48.65955 23.68798 34030 ft 448 kts 253°
2026-05-05 11:32 48.63897 23.59898 34029 ft 448 kts 252°
2026-05-05 11:32 48.61734 23.51077 34032 ft 448 kts 251°
2026-05-05 11:33 48.59517 23.42283 34039 ft 447 kts 251°
2026-05-05 11:33 48.57320 23.33496 34040 ft 447 kts 251°
2026-05-05 11:34 48.55128 23.24721 34034 ft 447 kts 251°
2026-05-05 11:34 48.52005 23.16587 34032 ft 452 kts 232°
2026-05-05 11:35 48.47595 23.09814 34025 ft 454 kts 226°
2026-05-05 11:35 48.43092 23.03149 34027 ft 453 kts 226°
2026-05-05 11:36 48.38596 22.96496 34018 ft 453 kts 226°
2026-05-05 11:36 48.34099 22.89862 34028 ft 452 kts 226°
2026-05-05 11:37 48.29642 22.83291 34032 ft 451 kts 226°
2026-05-05 11:37 48.25153 22.76710 34029 ft 451 kts 226°
2026-05-05 11:38 48.20663 22.70150 34026 ft 450 kts 226°
2026-05-05 11:38 48.16176 22.63592 34030 ft 451 kts 226°
2026-05-05 11:39 48.11665 22.57078 34020 ft 451 kts 225°
2026-05-05 11:39 48.06995 22.50801 34024 ft 451 kts 223°
2026-05-05 11:40 48.02260 22.44653 34027 ft 451 kts 223°
2026-05-05 11:40 47.97540 22.38470 34027 ft 451 kts 223°
2026-05-05 11:41 47.92853 22.32255 34029 ft 451 kts 223°
2026-05-05 11:41 47.88163 22.26031 34029 ft 451 kts 223°
2026-05-05 11:42 47.83460 22.19834 34028 ft 451 kts 223°
2026-05-05 11:42 47.78753 22.13668 34017 ft 451 kts 223°
2026-05-05 11:43 47.74048 22.07502 34019 ft 451 kts 223°
2026-05-05 11:43 47.69338 22.01345 34022 ft 451 kts 223°
2026-05-05 11:44 47.64618 21.95203 34035 ft 451 kts 223°
2026-05-05 11:44 47.59895 21.89069 34027 ft 451 kts 223°
2026-05-05 11:45 47.55215 21.82984 34029 ft 450 kts 223°
2026-05-05 11:45 47.50507 21.76878 34027 ft 449 kts 223°
2026-05-05 11:46 47.45814 21.70821 34030 ft 447 kts 223°
2026-05-05 11:46 47.41129 21.64796 34029 ft 446 kts 223°
2026-05-05 11:47 47.36459 21.58807 34032 ft 444 kts 223°
2026-05-05 11:47 47.31799 21.52837 34032 ft 443 kts 223°
2026-05-05 11:48 47.24824 21.43929 34026 ft 442 kts 223°
2026-05-05 11:48 47.20179 21.38008 34024 ft 441 kts 222°
2026-05-05 11:49 47.15541 21.32111 34025 ft 440 kts 223°
2026-05-05 11:49 47.10903 21.26239 34023 ft 440 kts 223°
2026-05-05 11:50 47.06268 21.20381 34009 ft 440 kts 223°
2026-05-05 11:50 47.02415 21.15516 34012 ft 439 kts 223°
2026-05-05 11:51 46.97780 21.09679 34012 ft 439 kts 223°
2026-05-05 11:51 46.93150 21.03848 34012 ft 439 kts 222°
2026-05-05 11:52 46.88510 20.98037 34011 ft 439 kts 222°
2026-05-05 11:52 46.83861 20.92251 34010 ft 439 kts 222°
2026-05-05 11:53 46.79210 20.86460 34013 ft 439 kts 222°
2026-05-05 11:53 46.74570 20.80672 34010 ft 439 kts 222°
2026-05-05 11:54 46.69921 20.74894 34005 ft 439 kts 222°
2026-05-05 11:54 46.65261 20.69136 34012 ft 439 kts 222°
2026-05-05 11:55 46.60599 20.63384 34011 ft 440 kts 222°
2026-05-05 11:55 46.55940 20.57632 34018 ft 439 kts 222°
2026-05-05 11:56 46.51286 20.51898 34008 ft 438 kts 221°
2026-05-05 11:56 46.46624 20.46190 34008 ft 438 kts 221°
2026-05-05 11:57 46.41967 20.40492 34008 ft 438 kts 221°
2026-05-05 11:57 46.37309 20.34791 34002 ft 438 kts 221°
2026-05-05 11:58 46.32671 20.29150 34004 ft 438 kts 221°
2026-05-05 11:58 46.27997 20.23479 34005 ft 438 kts 221°
2026-05-05 11:59 46.23332 20.17819 34004 ft 438 kts 221°
2026-05-05 11:59 46.18659 20.12165 34003 ft 438 kts 221°
2026-05-05 12:00 46.13482 20.07513 34005 ft 441 kts 206°
2026-05-05 12:00 46.07880 20.03898 34009 ft 441 kts 206°
2026-05-05 12:01 46.02282 20.00275 34000 ft 441 kts 206°
2026-05-05 12:01 45.96724 19.96688 34005 ft 441 kts 206°
2026-05-05 12:02 45.91125 19.93067 34007 ft 441 kts 206°
2026-05-05 12:02 45.85529 19.89458 34013 ft 441 kts 206°
2026-05-05 12:03 45.79932 19.85863 34011 ft 441 kts 206°
2026-05-05 12:03 45.74327 19.82276 34014 ft 441 kts 206°
2026-05-05 12:04 45.68726 19.78700 34011 ft 441 kts 206°
2026-05-05 12:04 45.63127 19.75126 34008 ft 441 kts 206°
2026-05-05 12:05 45.57529 19.71566 34014 ft 440 kts 206°
2026-05-05 12:05 45.51929 19.68017 34012 ft 440 kts 206°
2026-05-05 12:06 45.46330 19.64464 34006 ft 440 kts 206°
2026-05-05 12:06 45.40735 19.60914 34009 ft 440 kts 206°
2026-05-05 12:07 45.35133 19.57380 34010 ft 440 kts 206°
2026-05-05 12:07 45.29520 19.53857 34017 ft 440 kts 206°
2026-05-05 12:08 45.23915 19.50341 34011 ft 440 kts 206°
2026-05-05 12:08 45.18309 19.46822 34017 ft 440 kts 206°
2026-05-05 12:09 45.12706 19.43315 34009 ft 441 kts 206°
2026-05-05 12:09 45.07095 19.39822 34018 ft 440 kts 206°
2026-05-05 12:10 45.01522 19.36351 34014 ft 440 kts 206°
2026-05-05 12:10 44.95907 19.32864 34014 ft 440 kts 206°
2026-05-05 12:11 44.90298 19.29393 33997 ft 440 kts 206°
2026-05-05 12:11 44.84685 19.25915 34009 ft 440 kts 206°
2026-05-05 12:12 44.79090 19.22453 34016 ft 439 kts 206°
2026-05-05 12:12 44.73489 19.18996 34009 ft 439 kts 206°
2026-05-05 12:13 44.67891 19.15562 34009 ft 439 kts 206°
2026-05-05 12:13 44.62509 19.11646 34004 ft 434 kts 219°
2026-05-05 12:14 44.58348 19.05661 34006 ft 427 kts 238°
2026-05-05 12:14 44.55669 18.98280 33998 ft 425 kts 247°
2026-05-05 12:15 44.53224 18.90746 34011 ft 425 kts 247°
2026-05-05 12:15 44.50763 18.83215 34018 ft 424 kts 247°
2026-05-05 12:16 44.48319 18.75760 34014 ft 424 kts 247°
2026-05-05 12:16 44.45855 18.68258 34012 ft 424 kts 247°
2026-05-05 12:17 44.43380 18.60764 34014 ft 424 kts 247°
2026-05-05 12:17 44.40903 18.53282 34025 ft 423 kts 247°
2026-05-05 12:18 44.38434 18.45826 34025 ft 422 kts 247°
2026-05-05 12:18 44.35964 18.38389 34022 ft 422 kts 247°
2026-05-05 12:19 44.33491 18.30961 34011 ft 421 kts 247°
2026-05-05 12:19 44.31016 18.23546 34008 ft 421 kts 247°
2026-05-05 12:20 44.28531 18.16143 34026 ft 421 kts 247°
2026-05-05 12:20 44.26051 18.08750 34027 ft 420 kts 247°
2026-05-05 12:21 44.23565 18.01377 34031 ft 420 kts 247°
2026-05-05 12:21 44.21075 17.94016 34036 ft 420 kts 246°
2026-05-05 12:22 44.18572 17.86663 34045 ft 420 kts 246°
2026-05-05 12:22 44.16076 17.79312 34043 ft 420 kts 246°
2026-05-05 12:23 44.13577 17.71960 34048 ft 420 kts 246°
2026-05-05 12:23 44.10705 17.64928 34007 ft 424 kts 234°
2026-05-05 12:24 44.08763 17.61809 33130 ft 431 kts 229°
2026-05-05 12:24 44.06715 17.58737 32435 ft 432 kts 229°
2026-05-05 12:24 44.04669 17.55711 31982 ft 428 kts 229°
2026-05-05 12:24 44.02636 17.52718 31500 ft 424 kts 229°
2026-05-05 12:25 44.00619 17.49743 31026 ft 420 kts 229°
2026-05-05 12:25 43.98633 17.46802 30553 ft 416 kts 229°
2026-05-05 12:25 43.96664 17.43874 30076 ft 413 kts 229°
2026-05-05 12:25 43.94717 17.40973 29581 ft 409 kts 229°
2026-05-05 12:26 43.92794 17.38107 29122 ft 404 kts 229°
2026-05-05 12:26 43.90893 17.35274 28674 ft 399 kts 229°
2026-05-05 12:26 43.89005 17.32467 28241 ft 393 kts 229°
2026-05-05 12:26 43.87146 17.29714 27809 ft 389 kts 229°
2026-05-05 12:27 43.85308 17.26998 27380 ft 384 kts 229°
2026-05-05 12:27 43.83488 17.24315 26992 ft 380 kts 229°
2026-05-05 12:27 43.81680 17.21649 26585 ft 377 kts 229°
2026-05-05 12:27 43.79894 17.19012 26192 ft 374 kts 229°
2026-05-05 12:28 43.78121 17.16389 25796 ft 372 kts 229°
2026-05-05 12:28 43.76363 17.13794 25415 ft 369 kts 229°
2026-05-05 12:28 43.74612 17.11215 25035 ft 366 kts 229°
2026-05-05 12:28 43.72873 17.08656 24649 ft 364 kts 229°
2026-05-05 12:29 43.71163 17.06146 24267 ft 362 kts 229°
2026-05-05 12:29 43.69443 17.03624 23887 ft 360 kts 228°
2026-05-05 12:29 43.67723 17.01111 23466 ft 359 kts 228°
2026-05-05 12:29 43.66018 16.98622 23055 ft 355 kts 228°
2026-05-05 12:30 43.64331 16.96158 22666 ft 350 kts 228°
2026-05-05 12:30 43.62834 16.93543 22231 ft 345 kts 239°
2026-05-05 12:30 43.61615 16.90704 21813 ft 342 kts 240°
2026-05-05 12:30 43.60400 16.87888 21402 ft 340 kts 239°
2026-05-05 12:31 43.59189 16.85110 20985 ft 337 kts 239°
2026-05-05 12:31 43.58386 16.83272 20711 ft 336 kts 239°
2026-05-05 12:31 43.56829 16.79709 20166 ft 333 kts 239°
2026-05-05 12:31 43.55636 16.76981 19772 ft 331 kts 239°
2026-05-05 12:32 43.54465 16.74302 19519 ft 324 kts 239°
2026-05-05 12:32 43.53312 16.71664 19271 ft 321 kts 238°
2026-05-05 12:32 43.52162 16.69036 18973 ft 319 kts 239°
2026-05-05 12:32 43.51014 16.66418 18567 ft 319 kts 238°
2026-05-05 12:33 43.49872 16.63819 18115 ft 318 kts 238°
2026-05-05 12:33 43.48728 16.61220 17732 ft 315 kts 238°
2026-05-05 12:33 43.47592 16.58639 17244 ft 314 kts 238°
2026-05-05 12:33 43.46466 16.56082 16923 ft 310 kts 238°
2026-05-05 12:34 43.45350 16.53550 16509 ft 309 kts 238°
2026-05-05 12:34 43.44254 16.51070 16120 ft 307 kts 238°
2026-05-05 12:34 43.43155 16.48586 15894 ft 299 kts 238°
2026-05-05 12:34 43.42084 16.46169 15613 ft 294 kts 238°
2026-05-05 12:35 43.40921 16.43888 15284 ft 290 kts 227°
2026-05-05 12:35 43.39412 16.42088 14967 ft 286 kts 213°
2026-05-05 12:35 43.37643 16.40853 14639 ft 285 kts 204°
2026-05-05 12:35 43.35817 16.39801 14300 ft 283 kts 204°
2026-05-05 12:36 43.34620 16.39108 13902 ft 280 kts 204°
2026-05-05 12:36 43.32828 16.38068 13305 ft 281 kts 203°
2026-05-05 12:36 43.31034 16.37026 12963 ft 278 kts 204°
2026-05-05 12:36 43.29262 16.35996 12491 ft 274 kts 203°
2026-05-05 12:37 43.27514 16.34978 11745 ft 272 kts 203°
2026-05-05 12:37 43.25783 16.33972 11159 ft 266 kts 204°
2026-05-05 12:37 43.24080 16.32982 10721 ft 268 kts 204°
2026-05-05 12:37 43.22359 16.31972 10298 ft 270 kts 206°
2026-05-05 12:38 43.20897 16.30418 10017 ft 267 kts 232°
2026-05-05 12:38 43.20180 16.28063 9515 ft 275 kts 264°
2026-05-05 12:38 43.20446 16.25476 9047 ft 283 kts 289°
2026-05-05 12:38 43.21229 16.23016 8570 ft 278 kts 291°
2026-05-05 12:39 43.22024 16.20624 7996 ft 273 kts 291°
2026-05-05 12:39 43.23066 16.18432 7515 ft 282 kts 315°
2026-05-05 12:39 43.24795 16.17149 7160 ft 287 kts 347°
2026-05-05 12:39 43.26777 16.17196 6698 ft 291 kts 20°
2026-05-05 12:40 43.28622 16.18246 6429 ft 285 kts 25°
2026-05-05 12:40 43.30451 16.19321 6048 ft 286 kts 25°
2026-05-05 12:40 43.32281 16.20383 5760 ft 284 kts 24°
2026-05-05 12:40 43.34066 16.21505 5427 ft 281 kts 33°
2026-05-05 12:41 43.35584 16.23065 4868 ft 272 kts 45°
2026-05-05 12:41 43.36981 16.24765 4583 ft 257 kts 45°
2026-05-05 12:41 43.38318 16.26388 4451 ft 255 kts 45°
2026-05-05 12:41 43.39627 16.27977 4307 ft 254 kts 46°
2026-05-05 12:42 43.40960 16.29601 3924 ft 257 kts 45°
2026-05-05 12:42 43.42295 16.31226 3578 ft 256 kts 45°
2026-05-05 12:42 43.43627 16.32847 3233 ft 255 kts 45°
2026-05-05 12:42 43.44951 16.34457 2906 ft 249 kts 46°
2026-05-05 12:43 43.46203 16.35972 2550 ft 234 kts 45°
2026-05-05 12:43 43.47404 16.37432 2252 ft 228 kts 44°
2026-05-05 12:43 43.48549 16.38825 1976 ft 207 kts 45°
2026-05-05 12:43 43.49739 16.39747 1714 ft 193 kts 12°
2026-05-05 12:44 43.51024 16.39836 1471 ft 182 kts
2026-05-05 12:44 43.52230 16.40067 1267 ft 167 kts
2026-05-05 12:44 43.53357 16.39888 1056 ft 162 kts 338°
2026-05-05 12:44 43.54285 16.39057 842 ft 158 kts 317°
2026-05-05 12:45 43.55032 16.37960 646 ft 157 kts 303°
2026-05-05 12:45 43.55556 16.36660 490 ft 154 kts 285°
2026-05-05 12:45 43.55751 16.35237 441 ft 148 kts 264°
2026-05-05 12:45 43.55592 16.33857 427 ft 147 kts 249°
2026-05-05 12:46 43.55243 16.32533 310 ft 146 kts 243°
2026-05-05 12:46 43.54744 16.31320 138 ft 145 kts 229°
2026-05-05 12:46 43.54159 16.30297 65 ft 120 kts 232°
2026-05-05 12:46 43.53765 16.29567 82 ft 71 kts 233°
2026-05-05 12:47 43.53543 16.29168 87 ft 40 kts 232°
2026-05-05 12:47 43.53405 16.28925 87 ft 28 kts 233°
2026-05-05 12:47 43.53290 16.28720 85 ft 27 kts 231°
2026-05-05 12:47 43.53201 16.28611 88 ft 12 kts 219°
2026-05-05 12:48 43.53219 16.28575 84 ft 6 kts 22°
2026-05-05 12:48 43.53255 16.28628 89 ft 10 kts 55°
2026-05-05 12:48 43.53304 16.28724 89 ft 15 kts 55°
2026-05-05 12:48 43.53373 16.28857 89 ft 19 kts 52°
2026-05-05 12:49 43.53467 16.29027 87 ft 25 kts 53°
2026-05-05 12:49 43.53584 16.29238 84 ft 30 kts 52°
2026-05-05 12:49 43.53691 16.29457 83 ft 18 kts 75°
2026-05-05 12:49 43.53685 16.29627 64 ft 14 kts 99°
2026-05-05 12:50 43.53714 16.29713 66 ft 11 kts 52°
2026-05-05 12:50 43.53750 16.29785 68 ft 5 kts 75°
2026-05-05 12:50 43.53740 16.29832 63 ft 3 kts 114°
2026-05-05 12:50 43.53731 16.29859 62 ft 2 kts 115°
2026-05-05 12:51 43.53728 16.29868 62 ft 0 kts 115°